Weather History for KIMT - January, 2012

Change the Weather History Date:

Sunday, January 29, 2012

  Actual Average Record
Temperature  
Mean Temperature 6 °F -  
Max Temperature 19 °F 24 °F 46 °F (1989)
Min Temperature -9 °F 1 °F -28 °F (1951)
Degree Days  
Heating Degree Days 59    
Moisture  
Dew Point 5 °F    
Average Humidity 69    
Maximum Humidity 86    
Minimum Humidity 57    
Precipitation  
Precipitation 0.00 in - - ()
Sea Level Pressure  
Sea Level Pressure 30.00 in    
Wind  
Wind Speed 8 mph (WNW)    
Max Wind Speed 17 mph    
Max Gust Speed 22 mph    
Visibility 10 miles    
Events Snow    
Averages and records for this station are not official NWS values.
T = Trace of Precipitation, MM = Missing Value Source: NWS Daily Summary

Daily Weather History Graph

Daily Weather History Graph

Search for Another Location

Airport or City:

Trip Planner

Search our weather history database for the weather conditions in past years. The results will help you decide how hot, cold, wet, or windy it might be!

Date:

Astronomy

Jan. 29, 2012 Rise Set
Actual Time 7:18 AM CST 4:53 PM CST
Civil Twilight 6:46 AM CST 5:25 PM CST
Nautical Twilight 6:10 AM CST 6:01 PM CST
Astronomical Twilight 5:35 AM CST 6:36 PM CST
Moon 9:45 AM CST (1/29) No Moon Set
Length of Visible Light 10h 39m
Length of Day
9h 34m
Waxing Crescent, 37% of the Moon is Illuminated
Jan 29
Waxing Crescent
Jan 30
First Quarter
Feb 7
Full
Feb 14
Last Quarter
Feb 21
New

Hourly Weather History & Observations

Time (CST) Temp. Windchill Dew Point Humidity Pressure Visibility Wind Dir Wind Speed Gust Speed Precip Events Conditions
12:54 AM 19.0 °F 10.0 °F 9.0 °F 65% 29.86 in 10.0 mi West 6.9 mph - N/A   Clear
1:54 AM 18.0 °F 8.7 °F 9.0 °F 68% 29.87 in 10.0 mi West 6.9 mph - N/A   Clear
2:54 AM 17.1 °F 10.0 °F 8.1 °F 68% 29.88 in 10.0 mi West 4.6 mph - N/A   Mostly Cloudy
3:54 AM 16.0 °F 8.8 °F 9.0 °F 74% 29.88 in 10.0 mi WSW 4.6 mph - N/A   Overcast
4:54 AM 17.1 °F 8.7 °F 9.0 °F 71% 29.88 in 10.0 mi WSW 5.8 mph - N/A   Overcast
5:54 AM 17.1 °F 11.7 °F 10.0 °F 74% 29.90 in 10.0 mi West 3.5 mph - 0.00 in   Overcast
6:54 AM 19.0 °F 7.5 °F 10.9 °F 71% 29.92 in 10.0 mi NW 10.4 mph - 0.00 in   Overcast
7:54 AM 18.0 °F 5.4 °F 8.1 °F 65% 29.94 in 10.0 mi NW 11.5 mph 19.6 mph 0.00 in   Overcast
8:04 AM 17.6 °F 5.0 °F 8.6 °F 68% 29.87 in 8.0 mi NW 11.5 mph 18.4 mph 0.00 in Snow Light Snow
8:37 AM 17.6 °F 5.0 °F 8.6 °F 68% 29.88 in 10.0 mi NW 11.5 mph 21.9 mph 0.00 in   Overcast
8:54 AM 18.0 °F 6.1 °F 8.1 °F 65% 29.95 in 10.0 mi NW 10.4 mph - 0.00 in   Overcast
9:54 AM 18.0 °F 3.6 °F 8.1 °F 65% 29.98 in 10.0 mi NW 15.0 mph 20.7 mph N/A   Overcast
10:35 AM 17.6 °F 2.2 °F 6.8 °F 63% 29.93 in 10.0 mi NW 17.3 mph - N/A   Overcast
10:54 AM 18.0 °F 4.2 °F 7.0 °F 62% 30.01 in 10.0 mi WNW 13.8 mph - N/A   Overcast
11:54 AM 19.0 °F 5.6 °F 8.1 °F 62% 30.01 in 10.0 mi NW 13.8 mph 19.6 mph N/A   Overcast
12:54 PM 19.0 °F 5.6 °F 7.0 °F 59% 30.01 in 10.0 mi NW 13.8 mph - N/A   Overcast
1:54 PM 18.0 °F 5.4 °F 6.1 °F 60% 30.03 in 10.0 mi NW 11.5 mph - N/A   Overcast
2:54 PM 18.0 °F 4.8 °F 5.0 °F 57% 30.05 in 10.0 mi NW 12.7 mph - N/A   Overcast
3:54 PM 17.1 °F 4.3 °F 5.0 °F 59% 30.07 in 10.0 mi NW 11.5 mph - N/A   Partly Cloudy
4:54 PM 14.0 °F 3.9 °F 3.0 °F 62% 30.09 in 10.0 mi NW 6.9 mph - N/A   Clear
5:54 PM 9.0 °F - 1.0 °F 70% 30.12 in 10.0 mi Calm Calm - N/A   Clear
6:54 PM 3.9 °F - -0.0 °F 84% 30.14 in 10.0 mi Calm Calm - N/A   Clear
7:54 PM -0.9 °F - -5.1 °F 83% 30.14 in 10.0 mi Calm Calm - N/A   Clear
8:54 PM -4.0 °F - -9.0 °F 79% 30.15 in 10.0 mi Calm Calm - N/A   Clear
9:54 PM -7.1 °F - -11.0 °F 83% 30.15 in 10.0 mi Calm Calm - N/A   Clear
11:54 PM -9.9 °F - -13.0 °F 86% 30.17 in 10.0 mi Calm Calm - N/A   Clear